Temperature
3 3 3 3 3 3 3 2 2 2 3 3 4 4 3 3 4 4 4 4 5 5 5 5 6 6 6 6 6 6 7 7 7 7 7 7 7 7
3 3 3 3 3 3 2 2 2 2 2 3 3 3 3 3 3 3 4 4 4 5 5 5 5 6 6 6 6 6 6 6 6 6 6 6 6 6
2 2 2 2 2 2 2 2 2 2 2 2 2 3 3 3 3 3 3 4 4 5 5 5 5 5 6 5 6 6 6 6 6 6 6 6 5 5
2 2 2 2 2 2 2 2 2 1 1 2 2 2 2 2 2 3 3 3 4 4 4 5 5 5 5 5 5 5 6 6 5 5 5 5 5 5
2 2 2 2 2 2 2 2 1 1 1 1 2 2 2 2 2 2 3 3 3 4 4 4 5 5 5 5 5 5 5 5 5 5 5 5 5 4
2 2 2 2 2 2 1 1 1 1 1 1 1 2 2 2 2 2 2 3 3 3 4 4 4 4 4 5 5 5 5 5 5 5 4 4 4 4
2 2 2 2 2 1 1 1 1 1 1 1 1 1 1 1 2 2 2 2 2 3 3 3 3 4 4 4 4 4 4 4 4 4 4 4 3 3
2 2 2 2 2 2 1 1 1 1 1 1 1 1 1 1 1 1 1 2 2 2 2 2 3 3 3 3 3 3 3 3 3 3 3 3 3 3
1 1 1 1 1 1 1 1 1 1 1 1 1 1 1 1 1 1 1 2 1 2 2 2 2 2 2 2 2 2 2 3 3 3 3 3 2 2
1 1 1 1 1 1 1 1 1 1 1 1 1 1 1 1 1 1 1 1 1 2 2 1 2 2 2 2 2 2 2 2 2 2 2 2 2 1
1 1 1 1 1 1 1 1 1 1 1 1 1 1 1 1 1 1 1 1 1 1 1 1 1 1 1 1 1 1 1 1 1 1 1 1 1 1
0 0 0 0 1 1 0 0 0 0 1 1 1 1 1 1 1 1 1 1 1 1 1 1 1 0 0 0 0 1 1 1 1 1 1 1 1 0
-0 -0 0 0 0 0 0 0 0 0 0 0 1 1 1 1 1 1 1 1 1 1 1 1 0 0 -0 -0 -0 -0 -0 -0 -0 0 0 0 0 0
-1 -1 -0 -0 -0 -0 -0 0 0 0 0 0 0 0 1 1 1 1 1 1 1 1 1 1 1 1 0 -1 -1 -1 -1 -1 -1 -0 -0 -0 -0 -0
-1 -1 -1 -1 -1 -1 -0 -0 -0 -0 -0 0 0 0 0 0 0 1 1 1 1 1 1 0 1 0 0 -0 -1 -1 -1 -1 -1 -1 -1 -1 -1 -1
-2 -1 -1 -1 -1 -1 -1 -0 -0 -0 -0 -0 -0 0 0 0 0 0 0 1 0 0 0 0 0 0 -0 -0 -1 -1 -1 -1 -1 -1 -1 -1 -1 -1
-2 -2 -2 -2 -1 -1 -1 -1 -1 -1 -1 -0 -0 -0 -0 0 0 0 0 0 0 -0 -0 -0 -0 -0 -1 -1 -1 -1 -1 -1 -1 -1 -1 -1 -1 -1
-2 -2 -2 -2 -2 -2 -1 -1 -1 -1 -1 -1 -0 -0 -0 -0 -0 -0 -0 -0 -0 -0 -1 -1 -1 -1 -1 -1 -1 -2 -2 -1 -2 -2 -2 -2 -2 -2
-2 -2 -2 -2 -2 -2 -2 -2 -1 -1 -1 -1 -1 -1 -0 -0 -0 -0 -0 -0 -1 -1 -1 -1 -1 -1 -1 -2 -2 -2 -2 -2 -2 -2 -2 -2 -2 -2
-3 -3 -3 -2 -2 -2 -2 -2 -2 -1 -1 -1 -1 -1 -0 -0 -0 -1 -1 -1 -1 -1 -1 -1 -1 -1 -1 -2 -3 -2 -2 -2 -2 -2 -2 -2 -2 -2
-3 -3 -3 -3 -2 -2 -2 -2 -2 -2 -1 -1 -1 -1 -1 -1 -1 -1 -1 -1 -1 -1 -1 -2 -2 -1 -1 -2 -2 -3 -2 -2 -2 -2 -2 -2 -2 -2
-3 -3 -3 -3 -3 -3 -2 -2 -2 -2 -2 -1 -1 -1 -1 -1 -1 -1 -1 -1 -1 -1 -2 -2 -2 -2 -2 -2 -2 -2 -2 -2 -2 -2 -2 -2 -2 -2
-4 -3 -3 -3 -3 -3 -2 -2 -2 -2 -2 -2 -1 -1 -1 -1 -1 -1 -1 -1 -1 -2 -2 -2 -2 -2 -2 -2 -2 -2 -3 -3 -3 -2 -2 -2 -2 -2
Wind_Speed
12 13 12 11 11 10 10 10 10 12 14 13 10 10 10 12 13 14 15 17 18 18 19 18 18 17 16 15 14 14 13 12 12 13 14 15 14 13
11 13 13 11 11 10 10 10 11 12 13 12 11 12 12 12 14 15 14 16 17 17 17 17 16 15 15 14 12 12 11 12 12 12 11 11 12 11
13 13 14 13 11 11 10 10 11 11 13 13 12 12 14 13 11 11 12 12 11 13 15 15 14 13 13 13 12 11 10 10 10 11 10 10 9 8
14 14 15 11 13 12 10 11 11 11 12 14 13 11 13 12 11 11 10 9 9 11 12 13 12 12 11 10 9 9 8 8 7 7 7 6 5 5
14 14 15 13 14 11 11 11 10 10 10 11 12 11 10 10 10 10 9 8 8 8 9 9 8 9 9 9 8 7 5 5 5 4 5 4 4 3
14 14 14 14 14 12 11 11 10 10 10 10 10 10 9 9 7 7 7 6 6 7 7 6 5 4 3 4 4 4 4 4 4 4 3 3 2 2
13 13 13 14 14 12 10 10 10 9 9 9 9 9 8 7 7 6 6 6 6 6 5 4 3 2 1 3 4 6 5 5 4 4 4 3 3 2
13 12 11 12 12 14 15 15 14 12 11 10 9 9 10 8 6 6 6 6 5 5 4 4 3 1 1 1 5 6 6 5 4 4 4 4 2 1
11 11 9 9 10 10 11 12 13 14 14 12 11 10 9 8 6 6 6 5 6 5 4 3 3 2 1 3 7 6 6 5 5 5 5 4 3 2
11 11 10 10 9 9 8 9 9 9 10 10 10 10 8 7 6 6 5 4 5 4 3 1 2 2 3 3 7 7 6 6 6 5 4 3 2 1
10 10 10 10 10 9 8 8 8 8 6 6 7 7 6 6 5 3 3 2 3 3 3 1 1 3 3 3 5 7 6 6 5 4 3 3 2 1
8 8 9 9 9 9 8 7 8 7 5 4 4 3 4 3 3 4 3 2 2 1 2 1 1 2 2 3 3 3 4 5 6 5 4 4 2 1
7 7 6 7 7 8 8 7 6 6 4 3 3 2 2 2 2 2 2 2 2 2 1 1 0 1 1 1 3 3 3 3 3 4 4 4 4 3
7 6 5 6 6 7 6 4 4 3 2 2 1 1 1 1 2 2 2 2 2 1 1 1 1 2 2 1 1 2 3 3 3 2 2 4 5 5
6 6 7 7 6 5 3 2 2 2 1 1 1 1 1 1 1 1 3 3 4 4 3 3 2 3 2 2 1 1 2 3 3 2 3 3 3 2
5 5 5 5 4 3 2 2 1 1 1 1 1 0 1 1 1 1 2 2 4 5 6 7 5 4 4 3 2 1 1 1 2 3 3 3 3 3
5 4 3 2 2 1 1 1 1 0 1 1 1 1 1 1 1 1 1 2 3 3 4 5 6 7 6 3 2 2 2 2 2 2 2 3 3 3
5 3 2 2 2 1 1 1 1 0 0 1 1 1 1 1 2 2 2 3 4 4 4 3 3 4 4 5 6 2 2 2 2 3 2 2 3 4
3 2 2 2 1 1 1 0 0 1 0 1 1 1 1 2 2 2 3 4 4 4 3 2 2 3 3 3 4 5 3 2 2 3 3 2 2 3
2 2 2 1 1 1 0 0 0 0 1 1 1 1 2 2 3 3 3 4 4 4 3 3 3 3 3 2 1 3 5 3 2 2 3 2 2 2
2 1 1 1 1 1 0 0 0 0 1 1 1 2 2 2 3 3 4 5 4 4 3 3 3 3 2 2 3 3 4 6 4 2 2 2 2 3
2 1 1 1 0 0 0 0 1 1 1 1 2 2 2 2 3 4 4 4 4 4 4 3 3 3 3 3 4 4 4 5 7 8 7 5 2 1
2 2 1 1 0 0 0 0 0 1 1 1 2 2 3 3 3 4 4 4 5 5 5 4 4 4 4 4 5 4 5 5 4 5 6 8 7 5
Wind_Direction
267 266 265 264 262 259 260 261 268 283 287 290 292 289 290 289 286 284 284 282 282 280 279 279 275 272 267 265 260 261 255 254 252 251 246 243 241 239
268 266 265 263 263 258 256 257 256 265 277 285 290 290 291 288 286 284 283 284 280 277 277 276 272 269 266 261 259 255 249 246 245 247 243 239 239 237
270 267 265 264 263 259 257 256 257 259 270 283 286 290 289 289 292 290 288 287 284 279 277 278 272 266 260 257 251 246 246 242 239 238 229 230 235 232
271 268 266 264 260 259 256 257 259 259 267 278 286 290 288 290 292 293 294 293 290 289 286 283 272 266 258 251 246 245 241 236 224 219 212 207 207 218
270 268 266 262 261 258 257 259 261 262 265 272 283 288 291 291 294 294 297 301 303 303 300 292 281 271 259 248 238 228 212 197 192 197 184 184 195 215
270 267 265 261 259 259 257 258 261 263 265 269 278 285 290 292 292 295 305 311 315 317 314 315 311 312 252 216 187 167 165 161 153 137 135 147 165 198
274 270 267 263 258 256 256 258 258 259 264 270 275 281 286 290 291 298 302 312 319 322 324 331 337 1 34 97 105 112 115 117 118 119 126 131 131 146
278 275 271 265 258 256 257 257 255 256 262 267 272 272 278 283 289 294 300 307 313 329 329 336 345 21 35 62 98 100 99 97 98 102 107 114 117 136
279 277 274 270 262 260 260 259 258 254 252 258 265 267 272 276 281 287 291 300 303 311 322 330 346 25 33 78 99 105 103 93 92 101 103 94 85 82
280 276 273 274 267 263 265 267 268 267 261 257 260 267 269 273 271 272 280 301 316 320 321 329 7 25 32 53 90 93 93 88 85 91 94 93 77 37
283 279 274 273 270 264 264 267 273 278 276 259 260 267 278 278 272 267 263 274 303 324 335 353 48 41 35 44 60 72 75 76 76 77 76 87 59 9
286 282 274 272 275 268 262 262 267 275 283 292 285 278 276 285 283 261 248 241 269 301 323 4 67 44 35 22 30 32 47 59 56 52 54 53 44 28
291 290 287 283 278 274 271 265 263 273 278 281 295 307 314 321 327 326 313 255 258 270 254 310 79 45 62 32 11 18 29 27 25 33 46 48 42 34
291 293 297 302 299 293 284 273 271 269 263 271 284 303 331 340 352 6 29 34 10 331 278 317 128 124 112 75 19 11 18 13 10 15 33 45 45 38
292 301 305 306 307 303 299 286 273 253 228 224 237 273 317 347 24 46 55 61 58 43 38 34 80 105 99 105 88 21 1 2 1 22 33 31 27 20
295 302 310 314 306 302 310 314 277 222 196 193 190 102 59 51 53 72 81 85 76 58 43 43 51 78 88 85 101 76 18 360 353 15 28 35 29 23
303 304 308 314 318 324 335 348 359 160 149 147 128 108 82 72 60 67 83 90 91 85 66 55 58 61 60 67 85 70 45 25 25 25 29 41 35 26
299 293 302 312 318 328 347 11 17 58 133 130 138 141 134 112 93 83 88 103 103 97 91 85 89 82 66 48 31 51 41 30 28 28 33 44 35 25
296 289 302 311 320 333 336 7 351 340 103 129 132 127 118 113 115 111 106 107 104 100 91 78 68 81 84 57 29 16 28 35 40 43 36 33 29 7
299 294 303 313 317 315 326 23 56 40 100 122 129 123 119 120 120 118 117 114 111 100 81 53 40 51 76 85 56 20 22 34 45 50 37 33 33 7
300 293 300 310 333 346 351 149 137 119 126 131 126 115 114 119 121 119 118 117 113 107 94 57 38 57 81 92 84 54 34 36 38 43 38 39 35 27
314 310 312 317 312 11 58 119 117 117 116 123 121 117 112 113 120 122 126 125 114 105 93 78 64 57 64 89 91 75 56 47 48 51 44 37 28 25
317 320 329 334 335 289 188 154 137 128 122 119 121 119 115 111 113 119 121 118 114 110 104 90 71 64 71 90 93 83 73 62 53 51 46 42 50 58
Height
1441 1439 1437 1435 1434 1432 1430 1429 1427 1420 1415 1413 1413 1410 1408 1405 1402 1399 1396 1394 1391 1390 1388 1387 1386 1385 1385 1385 1384 1385 1385 1386 1387 1389 1390 1391 1393 1394
1434 1432 1430 1428 1427 1425 1423 1422 1420 1417 1411 1407 1406 1405 1402 1399 1396 1393 1390 1387 1385 1383 1382 1380 1379 1378 1378 1378 1378 1378 1379 1380 1381 1383 1384 1385 1387 1389
1427 1425 1423 1421 1419 1418 1416 1415 1413 1411 1406 1402 1401 1399 1397 1394 1390 1388 1385 1382 1379 1377 1375 1373 1372 1371 1371 1371 1371 1372 1373 1374 1375 1377 1378 1380 1382 1383
1420 1418 1416 1414 1412 1410 1409 1408 1407 1405 1403 1398 1395 1393 1391 1389 1386 1382 1379 1377 1374 1372 1370 1367 1365 1364 1364 1364 1365 1366 1367 1368 1370 1372 1373 1375 1376 1377
1412 1410 1408 1407 1405 1404 1402 1402 1400 1399 1398 1395 1390 1389 1386 1384 1381 1378 1375 1373 1370 1368 1365 1362 1360 1358 1358 1359 1360 1361 1362 1364 1365 1366 1368 1369 1371 1373
1405 1403 1401 1400 1398 1397 1396 1395 1395 1393 1392 1390 1387 1384 1382 1380 1378 1375 1372 1369 1367 1364 1361 1359 1356 1354 1354 1354 1355 1357 1359 1361 1361 1362 1364 1366 1367 1369
1398 1396 1394 1393 1391 1391 1390 1390 1389 1388 1387 1385 1383 1381 1379 1377 1375 1372 1370 1367 1364 1362 1359 1356 1354 1352 1353 1353 1353 1355 1356 1358 1359 1360 1362 1363 1365 1366
1391 1389 1387 1386 1385 1384 1384 1384 1384 1383 1381 1380 1378 1377 1375 1373 1372 1370 1368 1365 1362 1361 1358 1355 1354 1353 1353 1353 1355 1355 1356 1357 1358 1359 1360 1361 1363 1364
1385 1383 1381 1380 1380 1379 1378 1378 1378 1377 1377 1376 1374 1372 1371 1370 1369 1367 1366 1364 1362 1360 1358 1355 1355 1354 1355 1355 1356 1356 1357 1358 1358 1358 1359 1360 1361 1362
1379 1378 1376 1375 1374 1373 1373 1372 1371 1371 1371 1370 1369 1368 1367 1366 1366 1365 1364 1362 1360 1359 1358 1356 1355 1355 1356 1357 1357 1357 1358 1358 1358 1358 1359 1360 1360 1361
1374 1373 1371 1370 1369 1369 1368 1367 1366 1365 1365 1364 1364 1363 1363 1363 1362 1362 1361 1360 1358 1358 1358 1356 1356 1356 1357 1358 1358 1358 1359 1359 1358 1358 1359 1359 1360 1360
1370 1368 1367 1366 1365 1364 1364 1363 1361 1360 1360 1359 1359 1358 1358 1359 1359 1359 1359 1359 1357 1357 1357 1356 1356 1356 1357 1358 1359 1359 1359 1359 1359 1359 1359 1359 1359 1359
1367 1365 1363 1362 1361 1360 1359 1358 1357 1357 1357 1356 1355 1355 1356 1356 1356 1357 1357 1358 1357 1356 1357 1356 1356 1356 1357 1358 1359 1360 1360 1359 1359 1359 1359 1359 1359 1359
1363 1362 1360 1358 1357 1356 1355 1354 1354 1354 1354 1353 1353 1353 1354 1354 1355 1355 1356 1356 1356 1356 1356 1356 1356 1357 1357 1358 1359 1360 1361 1361 1360 1360 1359 1359 1359 1359
1360 1358 1357 1355 1353 1352 1352 1351 1351 1351 1351 1351 1351 1352 1353 1354 1354 1354 1354 1355 1355 1356 1357 1357 1358 1358 1359 1359 1360 1361 1361 1361 1361 1361 1360 1360 1360 1359
1357 1355 1354 1352 1351 1350 1349 1349 1349 1350 1350 1350 1351 1352 1352 1353 1353 1354 1354 1355 1355 1357 1358 1359 1359 1360 1360 1361 1362 1362 1363 1363 1363 1362 1361 1361 1361 1360
1355 1353 1351 1349 1348 1348 1348 1348 1348 1349 1349 1350 1351 1352 1352 1353 1354 1354 1355 1356 1356 1358 1359 1360 1361 1361 1362 1363 1363 1364 1364 1364 1364 1363 1362 1362 1362 1361
1353 1351 1349 1348 1347 1347 1347 1347 1348 1348 1349 1350 1351 1352 1352 1353 1354 1355 1356 1356 1357 1359 1360 1361 1362 1363 1364 1364 1365 1365 1365 1365 1365 1364 1364 1364 1363 1363
1351 1349 1348 1348 1347 1347 1347 1347 1348 1348 1349 1350 1351 1352 1353 1353 1354 1355 1356 1357 1358 1360 1361 1363 1363 1364 1364 1365 1367 1367 1367 1367 1366 1366 1366 1366 1365 1365
1349 1349 1348 1347 1347 1347 1347 1347 1348 1348 1349 1350 1351 1352 1353 1354 1355 1356 1357 1359 1360 1361 1363 1364 1365 1366 1366 1366 1367 1368 1368 1368 1368 1367 1367 1367 1367 1367
1349 1348 1348 1348 1347 1347 1347 1348 1348 1349 1350 1351 1352 1353 1354 1355 1356 1357 1358 1360 1361 1363 1364 1365 1366 1368 1368 1368 1369 1369 1370 1370 1370 1369 1369 1369 1368 1368
1348 1348 1347 1347 1347 1347 1348 1348 1349 1349 1350 1351 1352 1353 1354 1355 1357 1358 1359 1361 1362 1364 1365 1367 1368 1369 1369 1370 1370 1370 1371 1372 1372 1372 1372 1371 1371 1370
1348 1347 1347 1347 1347 1347 1348 1348 1349 1350 1351 1352 1353 1354 1355 1356 1358 1359 1361 1362 1364 1365 1367 1368 1369 1370 1371 1371 1372 1372 1373 1374 1374 1374 1374 1374 1373 1373